Weather Roundup
Issued by NWS

Home | Current Version | Previous Version | Text Only | Print | Product List | Glossary On
Versions: 1 2 3 4 5 6 7 8 9 10 11 12 13 14 15 16 17 18 19 20 21 22 23 24 25 26 27 28 29 30 31 32 33 34 35 36 37 38 39 40 41 42 43 44 45 46 47 48 49 50
000
NZUS93 KARX 291059
HRRWXR

CURRENT HOURLY OBSERVATIONS ACROSS
MUCH OF THE UPPER MISSISSIPPI VALLEY
NATIONAL WEATHER SERVICE LA CROSSE WI
500 AM CST MON DEC 29 2014


...SOUTHEAST MINNESOTA...


CITY           SKY/WX    TMP DP  RH WIND       PRES   REMARKS
ROCHESTER      CLOUDY    10   3  73 NE9       30.35S WCI  -3
ROCHESTER/MAYO CLOUDY    11   2  67 N7        30.37S WCI   0
WINONA         MOCLDY    14  10  85 CALM      30.42S
AUSTIN         MOCLDY    10   5  79 N8        30.35S WCI  -1
ALBERT LEA     MOCLDY    10   5  79 N9        30.35S WCI  -2
DODGE CENTER   MOCLDY     9   3  78 N9        30.35S WCI  -5
PRESTON        PTCLDY    10   5  82 N7        30.34S WCI  -2
OWATONNA       MOCLDY     9   0  66 N8        30.38S WCI  -4
FARIBAULT      CLOUDY     9   0  66 N6        30.40S WCI  -1
$$

...ELSEWHERE IN MINNESOTA...


CITY           SKY/WX    TMP DP  RH WIND       PRES   REMARKS
MINNEAPOLIS    CLOUDY     6  -3  66 N8        30.45R WCI  -7
INTNL FALLS    PTCLDY   -16 -22  74 NW5       30.47R WCI -29
DULUTH         CLEAR     -7 -13  75 NW10      30.38R WCI -25
RED WING       PTCLDY     7  -2  66 CALM      30.43R
REDWOOD FALLS  MOCLDY     9   1  70 N5        30.45R WCI   1
MANKATO        MOCLDY    10   1  67 N9        30.40S WCI  -2
WORTHINGTON    CLOUDY    10 -31  13 N15       30.36R WCI  -6
FAIRMONT       CLOUDY    12   7  79 N12       30.37R WCI  -2
$$

...SOUTHWEST WISCONSIN...


CITY           SKY/WX    TMP DP  RH WIND       PRES   REMARKS
LA CROSSE      PTCLDY    14   8  77 N10       30.40R WCI   1
PRAIRIE DU CHI CLOUDY    22  13  67 N5        30.34R WCI  16
BOSCOBEL       CLOUDY    21  12  68 N6        30.35R WCI  13
LONE ROCK      NOT AVBL
PLATTEVILLE    CLOUDY    22  17  80 CALM      30.31R
FORT MC COY    MOCLDY    12   8  82 N5        30.39R WCI   4
VIROQUA        CLOUDY    16  13  89 N9        30.31S WCI   4
WIS DELLS      NOT AVBL
$$

...ELSEWHERE IN WISCONSIN...


CITY           SKY/WX    TMP DP  RH WIND       PRES   REMARKS
MILWAUKEE      MOCLDY    23  15  71 N8        30.31R WCI  14
MADISON        CLOUDY    19  13  77 N9        30.32S WCI   8
GREEN BAY      PTCLDY    15   8  73 NW9       30.35S WCI   3
EAU CLAIRE     NOT AVBL
BLACK RVR FLS  CLOUDY    10   4  75 N3        30.39R
MEDFORD        PTCLDY   N/A N/A N/A N5        30.31S
WAUSAU         MOCLDY     1  -3  83 W5        30.33R WCI  -9
WIS RAPIDS     CLOUDY    10   3  73 N8        30.37R WCI  -2
MARSHFIELD     MOCLDY     5   0  79 N6        30.34S WCI  -6
RICE LAKE      PTCLDY     1  -6  74 NW5       30.41S WCI  -9
$$

...NORTHEAST IOWA...


CITY           SKY/WX    TMP DP  RH WIND       PRES   REMARKS
DECORAH        CLOUDY    18  14  86 N9        30.32R WCI   6
MASON CITY     CLOUDY    15  11  83 N10       30.34S WCI   2
CHARLES CITY   CLOUDY    18  14  86 N13       30.33S WCI   4
OELWEIN        MIX PCPN  21  18  86 NE10      30.31R WCI  10
$$

...ELSEWHERE IN IOWA...


CITY           SKY/WX    TMP DP  RH WIND       PRES   REMARKS
DES MOINES     CLOUDY    26  22  84 NE8       30.27S WCI  18
IOWA CITY      CLOUDY    26  20  77 NE8       30.30S WCI  18
FORT DODGE     MOCLDY    18  10  73 N7        30.33R WCI   8
$$

...NORTHERN ILLINOIS...


CITY           SKY/WX    TMP DP  RH WIND       PRES   REMARKS
CHICAGO-OHARE  MOCLDY    26  18  71 N8        30.27S WCI  18
CHICAGO-MIDWAY PTCLDY    29  21  72 N7        30.27S WCI  22
MOLINE         CLOUDY    23  19  85 CALM      30.28S
ROCKFORD       CLOUDY    25  20  81 NE7       30.31S WCI  17
PEORIA         PTCLDY    22  17  81 CALM      30.27F
$$

NOTE: "FAIR" INDICATES FEW OR NO CLOUDS BELOW 12,000 FEET WITH NO
SIGNIFICANT WEATHER AND/OR OBSTRUCTIONS TO VISIBILITY. WIND
SPEEDS ARE IN MILES-PER-HOUR.



USA.gov is the U.S. government's official web portal to all federal, state and local government web resources and services.